Zurück zum Katalog

STARLINK-32309

AktivKommunikationVLEO
NORAD 61676·PAYLOAD·🇺🇸 United States

Gestartet Oct 26, 2024 von Cape Canaveral Space Force Station

Loading…

Nächste Überflüge (nächste 24 Stunden)

TLE

AktuellSource: CelesTrak SupGP

Epoche: Sep 14, 2026, 14:47 UTC

1 61676C 24193R   26257.61645833  .00018541  00000+0  54808-3 0  2576
2 61676  53.1573 289.3417 0001160  74.6924 163.6904 15.34365645    18

Verfolge STARLINK-32309 in Echtzeit mit AllMySat

Download on the App Store